Location: ???????
(60.4260°N, 46.9069°E)
Time: 17:57:37
(UTC+00:00)

SJ 16-02 - Pass Details

Date: 30 March 2020
Orbit: 606 x 617 km, 75.0° (Epoch: 06 June)

Event Time Altitude Azimuth Distance (km) Brightness Sun altitude
Exits shadow 00:38:27 13° 199° (SSW) 1,789 3.3 -12.8°
Maximum altitude 00:42:23 72° 116° (ESE) 646 1.5 -12.3°
Drops below altitude 10° 00:46:46 10° 33° (NNE) 1,974 5.0 -11.9°
Sets 00:49:01 0° 32° (NNE) 2,881 6.0 -11.6°
